www.pogodaiklimat.ru

Погода и климат >> Архив погоды >> Таиланд >> Кабинбури


ПОГОДА в Кабинбури

  • Прогноз погоды в Кабинбури
  • Монитор погоды в Кабинбури

АРХИВ ПОГОДЫ в Кабинбури

Время (UTC), дата Ветер
(напр.,м/с)
 
Видим.   Явления Облачность Т
(С)
Тd
(С)
f
(%)
Тe
(С)
Тes
(С)
Комфортность P
(гПа)
Po
(гПа)
Тmin
(С)
Tmax
(С)
R
(мм)
R24
(мм)
S
(см)
03 15.09 штиль 0 10 км 8/3 600 м
[Cu Sc Ac trans Cs]
+29.6 +25.5 79 +44 +53 опасность
перегрева
1008.4 1007.0
06 15.09 штиль 0 11 км 8/3 600 м
[Cu Sc Ac trans Cs]
+33.6 +25.2 62 +48 +60 опасность
перегрева
1005.5 1004.1
09 15.09 штиль 0 11 км {дождь} 6/3 600 м
[Cu Sc Cs]
+31.0 +26.1 75 +46 +52 опасность
перегрева
1003.9 1002.5 11
12 15.09 штиль 0 8000 м слаб. дождь 10/5 300 м
[Cb cap Ac As Cs]
+28.0 +25.9 88 +42 +42 опасность
перегрева
1005.7 1004.3 +34.0 0.7
15 15.09 штиль 0 8000 м дымка {дождь} 8/4 600 м
[Sc Ac und Cs]
+25.7 +24.7 94 +36 +36 очень
душно
1007.9 1006.5 0.3
18 15.09 штиль 0 6000 м дымка {дождь} 9/3 600 м
[Sc Ac und Cs]
+25.5 +24.8 96 +36 +36 очень
душно
1007.0 1005.5 12
21 15.09 штиль 0 6000 м дымка 6/1 600 м
[Sc Cs]
+25.6 +25.2 98 +37 +37 очень
душно
1006.2 1004.8
00 16.09 штиль 0 11 км {дождь} 5/1 600 м
[Sc Ac trans Cs]
+25.1 +24.7 98 +35 +36 очень
душно
1007.0 1005.6 +24.8 0.0
03 16.09 штиль 0 11 км 4/1 600 м
[Cu med, cong Ac trans Cs]
+29.3 +26.2 83 +44 +59 опасность
перегрева
1008.4 1007.0
06 16.09 штиль 0 11 км 4/3 600 м
[Cu hum Cs]
+33.4 +25.4 63 +48 +66 опасность
перегрева
1005.4 1004.0
09 16.09 штиль 0 11 км {гроза} 8/4 600 м
[Cu Sc Ac und Cs]
+29.7 +25.9 80 +44 +48 опасность
перегрева
1003.5 1002.1 0.9
12 16.09 штиль 0 6000 м дымка {гроза} 4/3 600 м
[Sc Ac und Cs]
+26.8 +25.4 92 +39 +39 очень
душно
1005.2 1003.8 +34.5 0.9
15 16.09 штиль 0 6000 м дымка 9/3 600 м
[Sc Ac und Cs]
+26.4 +25.5 95 +39 +39 очень
душно
1007.8 1006.4
18 16.09 штиль 0 6000 м дымка {гроза} 10/5 600 м
[Sc Ac und Cs]
+25.8 +25.1 96 +37 +37 очень
душно
1007.1 1005.7 2
21 16.09 штиль 0 6000 м дымка 9/3 600 м
[Sc Ac und Cs]
+25.8 +24.9 95 +37 +37 очень
душно
1006.9 1005.5
00 17.09 штиль 0 6000 м дымка 8/5 600 м
[Sc Ac trans Cs]
+25.6 +25.0 96 +36 +37 очень
душно
1008.1 1006.7 +25.4
03 17.09 штиль 0 11 км 6/4 600 м
[Cu Sc Ac trans Cs]
+29.1 +26.1 84 +44 +54 опасность
перегрева
1008.6 1007.2
06 17.09 штиль 0 11 км 6/4 600 м
[Cu Sc Ac trans Cs]
+33.0 +26.0 67 +49 +62 опасность
перегрева
1006.7 1005.3
09 17.09 З 2 10 км {дождь} 8/5 600 м
[Cu Sc Ac trans Cs]
+29.6 +26.1 82 +45 +47 опасность
перегрева
1004.8 1003.4 0.1
12 17.09 штиль 0 8000 м дымка {дождь} 8/5 600 м
[Cu Sc Ac trans Cs]
+26.3 +24.4 89 +37 +37 очень
душно
1006.4 1004.9 +33.3 0.2
15 17.09 штиль 0 6000 м дымка 8/5 600 м
[Sc Ac trans Cs]
+26.2 +24.8 92 +37 +37 очень
душно
1008.8 1007.4
18 17.09 штиль 0 6000 м дымка 4/0
[Cs]
+26.0 +24.7 93 +37 +37 очень
душно
1008.2 1006.7
21 17.09 штиль 0 6000 м дымка 4/0
[Cs]
+25.9 +24.9 94 +37 +37 очень
душно
1007.3 1005.8
00 18.09 штиль 0 6000 м дымка 8/0
[Cs]
+24.7 +24.4 98 +34 +35 очень
душно
1008.9 1007.5 +24.4
03 18.09 штиль 0 10 км 3/1 600 м
[Cu med, cong Cs]
+30.5 +25.6 75 +45 +62 опасность
перегрева
1009.8 1008.4
06 18.09 штиль 0 11 км 4/3 600 м
[Cu Sc Cs]
+34.0 +25.9 63 +50 +68 опасность
перегрева
1006.9 1005.5
09 18.09 штиль 0 11 км 8/5 300 м
[Cb cap Ac As Cs]
+34.5 +26.2 62 +51 +54 опасность
перегрева
1004.9 1003.5
12 18.09 штиль 0 8000 м дымка {гроза} 10/5 300 м
[Cb cap Ac und Cs]
+24.7 +23.7 94 +34 +34 очень
душно
1007.8 1006.3 +35.3 8
15 18.09 штиль 0 8000 м дымка 10/5 300 м
[Cb cap Ac und Cs]
+25.2 +24.2 94 +35 +35 очень
душно
1010.0 1008.6
18 18.09 штиль 0 6000 м слаб. дождь 10/5 600 м
[Sc Ac As]
+25.5 +25.2 98 +37 +37 очень
душно
1009.3 1007.9 2
21 18.09 штиль 0 6000 м в посл. час дождь 10/5 600 м
[Sc Ac As]
+25.5 +24.8 96 +36 +36 очень
душно
1008.5 1007.0 1
00 19.09 штиль 0 8000 м дымка {дождь} 6/3 600 м
[Sc Ac und Cs]
+25.4 +24.8 96 +36 +36 очень
душно
1009.3 1007.8 +24.1 0.3
03 19.09 штиль 0 8000 м слаб. дождь 8/6 600 м
[Cu Sc Ac und Cs]
+26.5 +25.5 94 +39 +45 очень
душно
1011.0 1009.6 0.3
06 19.09 штиль 0 8000 м дымка {дождь} 8/5 600 м
[Sc Ac As Cs]
+28.8 +25.1 80 +42 +51 опасность
перегрева
1008.9 1007.5 0.3
09 19.09 штиль 0 10 км 8/3 600 м
[Sc Ac trans Cs]
+29.0 +25.5 81 +43 +46 опасность
перегрева
1007.0 1005.6
12 19.09 штиль 0 6000 м дымка 4/3 600 м
[Sc Ac und Cs]
+27.4 +26.0 92 +41 +41 опасность
перегрева
1008.2 1006.8 +29.4
15 19.09 штиль 0 6000 м дымка 3/3 600 м
[Sc Ac und Cs]
+26.6 +25.7 95 +39 +39 очень
душно
1010.3 1008.8
18 19.09 штиль 0 6000 м в посл. час дождь 10/5 600 м
[Sc Ac und Cs]
+25.6 +25.0 96 +36 +36 очень
душно
1009.8 1008.4 2
21 19.09 штиль 0 6000 м дымка 9/4 600 м
[Sc Ac und Cs]
+24.9 +24.3 96 +34 +34 очень
душно
1008.3 1006.9
00 20.09 штиль 0 6000 м дымка 8/5 600 м
[Sc Ac trans Cs]
+25.0 +24.4 96 +35 +35 очень
душно
1009.1 1007.7 +24.8
03 20.09 штиль 0 11 км 5/3 600 м
[Cu hum Cs]
+28.7 +25.4 82 +42 +55 опасность
перегрева
1009.9 1008.5
06 20.09 З 2 11 км 8/5 600 м
[Sc Ac trans Cs]
+32.5 +24.7 64 +46 +53 опасность
перегрева
1007.9 1006.5
09 20.09 штиль 0 11 км 8/5 600 м
[Sc Ac trans Cs]
+29.8 +25.4 77 +44 +46 опасность
перегрева
1005.6 1004.2
12 20.09 штиль 0 6000 м дымка 5/3 600 м
[Sc Ac trans Cs]
+27.0 +24.8 88 +39 +39 очень
душно
1007.8 1006.3 +32.6
15 20.09 штиль 0 6000 м дымка 8/5 600 м
[Sc Ac trans Cs]
+26.6 +24.7 89 +38 +38 очень
душно
1009.5 1008.1
18 20.09 штиль 0 6000 м дымка 8/5 600 м
[Sc Ac trans Cs]
+26.0 +24.6 92 +37 +37 очень
душно
1008.9 1007.5
21 20.09 штиль 0 6000 м дымка 8/5 600 м
[Sc Ac trans Cs]
+25.7 +24.4 93 +36 +36 очень
душно
1008.0 1006.6
00 21.09 штиль 0 8000 м дымка 10/5 600 м
[Sc Ac und Cs]
+25.9 +25.2 96 +37 +38 очень
душно
1008.6 1007.2 +25.7
03 21.09 штиль 0 8000 м слаб. дождь 10/5 600 м
[Sc Ac As]
+25.0 +24.3 96 +35 +38 очень
душно
1009.7 1008.3 26
06 21.09 штиль 0 10 км {дождь} 9/5 600 м
[Sc Ac und Cs]
+30.8 +24.8 70 +44 +52 опасность
перегрева
1007.5 1006.1 0.1
09 21.09 штиль 0 8000 м гроза, ливневой дождь 10/5 300 м
[Cb cap Ac As]
+26.0 +24.6 92 +37 +38 очень
душно
1006.8 1005.4 2
12 21.09 штиль 0 6000 м слаб. дождь {гроза} 10/5 600 м
[Sc Ac As]
+25.5 +24.8 96 +36 +36 очень
душно
1008.0 1006.6 +31.7 4
15 21.09 штиль 0 6000 м дымка {дождь} 10/5 600 м
[Sc Ac und Cs]
+25.4 +24.8 96 +36 +36 очень
душно
1010.3 1008.9 0.2
18 21.09 штиль 0 6000 м дымка {дождь} 10/5 600 м
[Sc Ac As]
+25.2 +24.8 98 +36 +36 очень
душно
1009.7 1008.3 32
21 21.09 штиль 0 6000 м гроза, ливневой дождь 10/4 300 м
[Cb cap Ac As]
+24.0 +23.6 98 +33 +33 очень
душно
1009.0 1007.6 72

 

Местоположение метеостанции Кабинбури (Таиланд): широта 13.98 долгота 101.70 высота над уровнем моря 12 м.

В архиве по умолчанию представлена погода в Кабинбури за последнюю неделю. Архивные данные за месяц целиком и за предыдущие месяцы, начиная с января 2011 года, Вы можете получить, выбрав интересующий диапазон дат из раскрывающегося списка и нажав кнопку "Ввод!".


*Определитесь, кто Вы:
робот инопланетянин человек

Внимание! Время в таблицах - всемирное. Для получения местного времени необходимо прибавить поправку, которая равна 7 ч.

Смотрите также архив погоды в соседних городах и на ближайших метеорологических станциях:

Погода в Прачинбури (Таиланд) (38 км)
Погода в Сракаеве (Таиланд) (42 км)
Погода в Чаченгсау (Таиланд) (60 км)
Погода в Пакчонг Агромете (Таиланд) (83 км)
Погода в Чок Чай (Таиланд) (96 км)
Погода в Араньяпратете (Таиланд) (100 км)
Погода в Чонбури (Таиланд) (103 км)
Погода в Ратбури (Таиланд) (103 км)
Погода в Сарабури (Таиланд) (103 км)
Погода в Аэропорту Суварнабхуми (Таиланд) (107 км)

Пояснения к столбцам:

Ветер - указаны скорость ветра в м/с - средняя за 10 мин, порывы в срок и между сроками (в фигурных скобках) и направление, откуда дует ветер: С - северный, СВ - северо-восточный, В - восточный, ЮВ - юго-восточный, Ю - южный, ЮЗ - юго-западный, З - западный, СЗ - северо-западный.
Видимость - горизонтальная дальность видимости в метрах или километрах. При видимости от 1 до 10 км при отсутствии осадков обычно наблюдается дымка, при ухудшении видимости до 1 км и менее - туман. В сухую погоду видимость может ухудшаться дымом, пылью или мглою.
Явления - указаны атмосферные явления, наблюдавшиеся в срок или в последний час перед сроком; фигурными скобками обозначены явления, наблюдавшиеся между сроками (за 1-3 часа до срока); квадратными скобками обозначены град или гололедные отложения с указанием их диаметра в мм.
Облачность - указаны через наклонную черту общая и нижняя облачность в баллах и высота нижней границы облаков в метрах; квадратными скобками обозначены формы облаков: Ci - перистые, Cs - перисто-слоистые, Cc - перисто-кучевые, Ac - высококучевые, As - высокослоистые, Sc - слоисто-кучевые, Ns - слоисто-дождевые, Cu - кучевые, Cb - кучево-дождевые. Подробнее классификацию облаков см. в Атласе облаков (PDF).
T - Температура воздуха - температура, измеренная на высоте 2 м над землей.
Td - Температура точки росы - температура, при понижении до которой содержащийся в воздухе водяной пар достигнет насыщения.
f - Относительная влажность воздуха - влажноcть воздуха, измеренная на высоте 2 м над землей.
Te - Эффективная температура - температура, которую ощущает одетый по сезону человек в тени. Характеристика душности погоды. При расчете учитывается влияние влажности воздуха и скорости ветра на теплоощущения человека.
Tes - Эффективная температура на солнце - температура, которую ощущает человек, с поправкой на солнечный нагрев. Характеристика знойности погоды. Зависит от высоты солнца над горизонтом, облачности и скорости ветра. Ночью, в пасмурную погоду, а также при ветре 12 м/с и более поправка равна нулю.
P - Атмосферное давление - приведенное к уровню моря атмосферное давление.
Po - Атмосферное давление - измеренное на уровне метеостанции атмосферное давление.
Tmin - Минимальная температура - минимум температуры воздуха на высоте 2 м над землей.
Tmax - Максимальная температура - максимум температуры воздуха на высоте 2 м над землей.
R - Количество осадков - Количество выпавших осадков за период времени, мм. При наведении курсора мыши на число - период времени, за который выпало указанное количество осадков.
R24 - Количество осадков - Количество выпавших осадков за 24 часа, мм.
S - Снежный покров - Высота снежного покрова, см. При наведении курсора мыши на число - состояние снежного покрова и степень покрытия местности в баллах.